Date,TemperatureHighF,TemperatureAvgF,TemperatureLowF,DewpointHighF,DewpointAvgF,DewpointLowF,HumidityHigh,HumidityAvg,HumidityLow,PressureMaxIn,PressureMinIn,WindSpeedMaxMPH,WindSpeedAvgMPH,GustSpeedMaxMPH,PrecipitationSumIn
2013-1-1,52,37,28,27,18,8,79,50,30,30.17,29.79,13,3,20,0.00
2013-1-2,59,40,27,18,8,0,42,28,14,30.20,29.63,14,6,22,0.00
2013-1-3,47,37,31,7,3,0,31,24,17,30.18,29.87,21,9,31,0.00
2013-1-4,57,39,28,13,5,-1,32,25,15,30.31,29.84,13,3,17,0.00
2013-1-5,61,40,26,15,6,0,35,26,14,30.36,29.88,6,2,7,0.00
2013-1-6,62,43,33,18,9,4,34,25,14,30.17,29.63,11,2,15,0.00
2013-1-7,63,44,34,21,11,4,36,26,16,29.85,29.46,12,4,15,0.00
2013-1-8,66,48,30,18,11,4,32,23,12,30.02,29.62,10,3,17,0.00
2013-1-9,71,54,42,20,15,10,32,22,13,30.05,29.67,7,2,10,0.00
2013-1-10,52,44,36,26,17,13,50,34,26,29.90,29.44,15,6,26,0.00
2013-1-11,47,35,1,100,6,-12,46,29,11,29.91,29.60,16,6,24,0.00
2013-1-12,26,24,21,-3,-4,-7,33,28,24,29.96,29.88,6,2,7,0.00
2013-1-14,34,26,21,0,-8,-11,24,22,20,30.27,29.93,9,4,13,0.00
2013-1-15,50,32,18,6,-3,-13,30,22,16,30.37,29.99,9,3,15,0.00
2013-1-16,63,42,27,16,8,1,33,25,16,30.42,29.93,13,4,18,0.00
2013-1-17,62,46,37,16,9,4,30,22,15,30.30,29.96,14,7,24,0.00
2013-1-18,68,47,34,20,12,6,34,25,15,30.31,29.85,7,3,10,0.00
2013-1-19,70,49,35,22,11,0,37,23,12,30.30,29.87,10,3,15,0.00
2013-1-20,71,49,33,16,7,0,30,19,12,30.26,29.75,9,3,15,0.00
2013-1-21,71,51,37,16,7,1,24,17,12,30.16,29.79,11,5,16,0.00
2013-1-22,74,52,36,16,7,-1,22,16,11,30.22,29.79,6,2,8,0.00
2013-1-23,71,51,38,20,12,4,28,21,14,30.20,29.82,6,2,8,0.00
2013-1-24,54,50,48,42,29,17,80,48,27,30.14,29.99,6,2,10,0.00
2013-1-25,61,52,46,48,44,41,92,74,53,30.10,29.76,6,1,8,0.25
2013-1-26,52,49,48,51,49,47,98,97,92,29.88,29.61,8,3,15,1.58
2013-1-27,56,49,44,52,46,42,98,91,68,29.78,29.61,11,4,17,0.12
2013-1-28,46,40,34,42,33,25,97,78,51,29.83,29.60,12,5,17,0.34
2013-1-29,48,36,26,29,22,18,86,59,35,30.08,29.69,9,2,14,0.00
2013-1-30,58,42,28,27,21,15,67,46,26,30.27,29.94,7,2,10,0.00
2013-1-31,57,38,33,32,26,24,72,63,36,30.24,29.88,4,1,5,0.00
2013-2-1,69,51,42,25,22,17,45,34,17,30.16,29.77,4,1,6,0.00
2013-2-2,72,54,38,30,23,17,50,32,14,30.22,29.69,8,3,15,0.00
2013-2-3,59,51,45,31,27,20,53,40,31,30.04,29.64,9,2,13,0.00
2013-2-4,73,53,39,35,26,17,63,39,16,29.94,29.53,7,3,10,0.00
2013-2-5,73,53,38,28,21,13,43,31,13,29.94,29.46,8,2,10,0.00
2013-2-6,69,51,41,35,29,24,61,45,23,29.86,29.48,8,2,11,0.00
2013-2-7,70,52,38,35,28,18,68,44,17,29.96,29.55,8,2,15,0.00
2013-2-8,59,47,40,34,23,11,57,39,25,29.76,29.38,20,6,35,0.00
2013-2-9,40,35,32,30,27,13,82,72,33,29.81,29.47,9,4,16,0.17
2013-2-10,40,35,32,32,28,25,89,76,56,29.88,29.68,10,2,19,0.00
2013-2-11,48,34,26,29,23,17,86,66,40,30.09,29.69,11,2,14,0.12
2013-2-12,55,38,24,23,17,11,64,45,26,30.25,29.79,9,3,12,0.00
2013-2-13,65,45,29,24,16,11,50,34,18,30.19,29.70,8,3,11,0.00
2013-2-14,66,48,33,27,17,13,50,31,16,30.12,29.71,13,4,18,0.00
2013-2-15,70,51,38,21,12,2,37,23,12,30.28,29.87,12,5,23,0.00
2013-2-16,77,53,35,22,11,3,31,20,11,30.34,29.70,7,2,9,0.00
2013-2-17,69,51,36,23,11,3,33,20,12,29.94,29.40,14,4,26,0.00
2013-2-18,70,50,35,24,14,6,40,25,12,29.96,29.53,7,2,11,0.00
2013-2-19,62,49,36,22,13,5,40,25,14,29.79,29.30,14,5,22,0.00
2013-2-20,45,36,33,31,27,15,86,71,30,29.76,29.33,14,2,23,0.24
2013-2-21,37,34,32,33,30,26,88,82,75,29.92,29.72,7,0,10,0.08
2013-2-22,55,40,25,32,24,17,88,57,26,30.03,29.65,7,2,10,0.09
2013-2-23,58,43,28,26,20,15,59,41,25,30.06,29.39,13,4,18,0.00
2013-2-24,51,41,32,19,10,2,54,30,17,29.98,29.56,17,6,22,0.00
2013-2-25,63,44,28,19,11,4,43,28,13,30.17,29.62,9,3,11,0.00
2013-2-26,63,45,30,23,11,-2,48,27,13,30.02,29.55,14,4,24,0.00
2013-2-27,60,44,32,11,3,-4,25,18,14,30.19,29.83,13,5,19,0.00
2013-2-28,68,49,33,14,5,-3,20,16,12,30.25,29.85,12,3,15,0.00
2013-3-1,76,55,36,22,12,0,32,19,12,30.33,29.82,9,3,13,0.00
2013-3-2,80,60,42,29,20,14,39,23,12,30.25,29.67,7,2,10,0.00
2013-3-3,64,54,43,30,22,16,45,30,19,29.97,29.55,9,3,14,0.00
2013-3-4,72,57,46,29,23,19,40,27,16,29.91,29.45,11,3,15,0.00
2013-3-5,70,55,41,29,22,14,48,29,14,30.00,29.62,11,2,13,0.00
2013-3-6,73,57,41,34,22,14,52,29,13,29.90,29.44,13,4,17,0.00
2013-3-7,72,56,40,32,22,14,49,29,14,29.83,29.45,13,4,26,0.00
2013-3-8,51,42,34,40,33,22,92,73,33,29.74,29.44,16,3,22,1.11
2013-3-9,38,36,34,35,33,31,92,88,85,29.95,29.71,4,1,6,0.54
2013-3-10,66,47,32,41,29,18,95,56,23,30.12,29.71,9,2,12,0.13
2013-3-11,72,53,36,30,24,18,51,35,16,30.15,29.61,7,2,10,0.00
2013-3-12,80,59,39,32,24,17,51,29,12,30.05,29.53,10,3,15,0.00
2013-3-13,83,63,44,32,23,15,43,25,11,30.10,29.62,10,3,13,0.00
2013-3-14,90,68,50,32,23,20,35,20,10,30.05,29.52,13,3,23,0.00
2013-3-15,87,66,50,34,23,16,36,21,11,29.91,29.45,9,3,13,0.00
2013-3-16,82,63,51,36,27,18,41,28,12,29.72,29.23,12,3,22,0.00
2013-3-17,82,62,46,35,23,6,49,27,10,29.70,29.23,20,4,29,0.00
2013-3-18,80,62,45,26,17,4,33,18,12,29.79,29.39,11,3,17,0.00
2013-3-19,80,63,51,34,24,15,38,25,12,29.85,29.47,10,3,16,0.00
2013-3-20,75,60,49,31,23,17,35,24,16,29.88,29.48,13,4,21,0.00
2013-3-21,80,63,48,36,26,14,48,27,11,29.61,29.20,14,4,23,0.00
2013-3-22,77,59,45,30,17,4,29,20,12,29.58,29.19,18,4,27,0.00
2013-3-23,68,54,40,14,7,0,18,15,12,29.82,29.48,16,5,24,0.00
2013-3-24,74,55,38,16,8,0,19,15,11,29.93,29.42,15,4,19,0.00
2013-3-25,60,47,43,11,4,2,18,17,14,29.84,29.70,7,3,11,0.00
2013-3-30,77,64,54,27,22,16,31,20,13,29.76,29.53,0,0,0,0.00
2013-3-31,84,63,48,32,23,14,40,24,11,29.86,29.39,0,0,0,0.00
2013-4-1,78,62,47,34,20,8,43,22,13,29.76,29.41,0,0,0,0.00
2013-4-2,75,59,44,26,18,10,34,21,13,29.80,29.36,0,0,0,0.00
2013-4-3,82,64,47,33,22,10,44,23,12,29.86,29.49,0,0,0,0.00
2013-4-4,84,65,48,24,18,9,26,17,11,29.92,29.45,0,0,0,0.00
2013-4-5,81,66,51,30,21,15,30,19,12,29.74,29.33,0,0,0,0.00
2013-4-6,83,66,50,32,22,16,37,21,11,29.77,29.32,0,0,0,0.00
2013-4-7,82,64,49,32,23,15,37,23,12,29.67,29.25,0,0,0,0.00
2013-4-8,66,54,46,34,26,19,48,34,25,29.42,28.94,0,0,0,0.00
2013-4-9,61,49,42,37,25,15,76,42,19,29.69,29.22,0,0,0,0.04
2013-4-10,70,55,41,25,17,7,45,25,12,29.81,29.46,0,0,0,0.00
2013-4-11,78,60,42,27,18,9,36,21,13,29.81,29.30,0,0,0,0.00
2013-4-12,82,63,45,28,20,15,34,21,12,29.64,29.25,0,0,0,0.00
2013-4-13,83,67,49,30,20,11,32,18,11,29.64,29.18,0,0,0,0.00
2013-4-14,78,66,52,27,20,15,27,17,13,29.47,29.14,0,0,0,0.00
2013-4-15,74,63,53,30,26,21,34,24,16,29.47,29.18,0,0,0,0.00
2013-4-16,70,57,54,35,30,27,40,36,23,29.45,29.28,0,0,0,0.00
2013-4-21,86,74,59,26,18,10,14,12,10,29.68,29.36,0,0,0,0.00
2013-4-22,89,70,51,27,16,6,19,13,10,29.76,29.25,0,0,0,0.00
2013-4-23,85,68,52,24,16,7,21,14,10,29.63,29.31,0,0,0,0.00
2013-4-24,84,65,47,24,14,4,17,14,10,29.76,29.37,0,0,0,0.00
2013-4-25,79,64,50,24,18,8,28,17,11,29.77,29.39,0,0,0,0.00
2013-4-26,87,65,48,32,23,13,40,23,11,29.96,29.54,0,0,0,0.00
2013-4-27,90,71,51,27,19,10,23,15,10,29.97,29.39,0,0,0,0.00
2013-4-28,93,73,53,27,17,7,16,12,9,29.75,29.25,0,0,0,0.00
2013-4-29,96,76,56,28,18,8,15,12,9,29.62,29.09,0,0,0,0.00
2013-4-30,90,74,58,27,18,9,17,12,10,29.46,29.11,0,0,0,0.00
2013-5-1,89,73,55,27,17,8,15,12,10,29.85,29.34,0,0,0,0.00
2013-5-2,78,64,52,23,12,7,16,13,10,30.07,29.72,0,0,0,0.00
2013-5-3,87,69,51,26,15,7,16,13,10,29.94,29.33,0,0,0,0.00
2013-5-4,87,70,51,26,16,6,16,13,10,29.60,29.16,0,0,0,0.00
2013-5-6,74,67,58,34,31,26,39,26,21,29.63,29.43,15,7,23,0.00
2013-5-7,70,60,50,39,32,20,58,37,17,29.74,29.43,17,6,26,0.00
2013-5-8,76,62,44,37,28,18,62,33,13,29.83,29.47,10,3,13,0.00
2013-5-9,82,62,49,32,28,22,41,30,11,29.78,29.44,10,2,17,0.00
2013-5-10,74,67,61,27,24,19,25,20,13,29.84,29.49,0,0,0,0.00
2013-5-11,87,72,57,35,26,16,36,20,11,29.91,29.55,9,2,12,0.00
2013-5-12,95,74,56,30,22,12,26,15,9,29.99,29.45,9,4,13,0.00
2013-5-13,96,78,58,28,22,13,19,13,9,29.86,29.34,7,3,10,0.00
2013-5-14,96,76,60,30,22,15,23,14,9,29.70,29.24,11,3,15,0.00
2013-5-15,91,75,60,28,22,12,24,15,10,29.64,29.28,17,5,31,0.00
2013-5-16,90,72,56,27,17,8,15,12,10,29.67,29.25,15,5,26,0.00
2013-5-17,83,70,57,24,17,8,17,13,11,29.60,29.35,13,6,15,0.00
2013-5-18,85,70,55,27,19,9,26,15,11,29.65,29.32,4,4,4,0.00
2013-5-19,88,72,56,32,22,12,30,16,10,29.65,29.21,4,4,4,0.00
2013-5-20,87,71,55,26,19,11,22,14,11,29.69,29.32,4,4,4,0.00
2013-5-21,92,74,56,27,19,9,24,13,9,29.68,29.22,4,4,4,0.00
2013-5-22,90,74,57,27,19,8,17,12,10,29.54,29.14,4,4,4,0.00
2013-5-23,89,75,62,27,18,11,14,12,10,29.49,29.23,4,4,4,0.00
2013-5-24,90,74,57,27,19,10,22,13,10,29.66,29.30,4,4,4,0.00
2013-5-25,91,73,56,27,18,8,17,13,10,29.68,29.31,4,4,4,0.00
2013-5-26,89,72,55,27,17,8,15,12,10,29.69,29.35,4,4,4,0.00
2013-5-27,88,71,57,27,17,8,15,13,10,29.61,29.23,4,4,4,0.00
2013-5-28,86,70,56,25,19,10,19,14,11,29.51,29.10,4,2,4,0.00
2013-5-29,91,74,57,33,24,14,34,17,9,29.46,29.06,0,0,0,0.00
2013-5-30,93,76,59,37,25,16,27,16,9,29.51,29.18,0,0,0,0.00
2013-5-31,97,80,62,40,30,22,36,18,8,29.56,29.19,0,0,0,0.00
2013-6-1,102,83,70,30,23,14,22,11,7,29.53,29.14,0,0,0,0.00
2013-6-2,99,83,66,28,21,12,13,10,8,29.48,29.08,0,0,0,0.00
2013-6-3,97,81,64,28,22,14,18,12,8,29.49,29.14,0,0,0,0.00
2013-6-4,98,80,62,28,20,11,16,11,8,29.56,29.18,0,0,0,0.04
2013-6-5,100,82,62,28,21,11,14,11,7,29.59,29.14,0,0,0,0.00
2013-6-6,104,84,65,28,22,12,15,10,7,29.52,29.07,0,0,0,0.00
2013-6-7,106,85,66,29,21,12,13,10,6,29.48,29.01,0,0,0,0.00
2013-6-8,106,86,67,29,22,13,13,10,6,29.44,29.06,4,0,6,0.00
2013-6-9,106,87,68,29,22,14,13,10,6,29.53,29.13,13,4,19,0.00
2013-6-10,101,84,67,28,22,12,13,10,7,29.55,29.15,16,6,24,0.00
2013-6-11,102,84,65,28,21,12,13,10,7,29.58,29.19,15,4,24,0.00
2013-6-12,107,86,67,29,22,13,13,10,6,29.60,29.19,12,4,20,0.00
2013-6-13,100,84,68,28,22,14,14,10,7,29.57,29.17,15,5,23,0.00
2013-6-14,100,84,67,28,24,18,17,12,7,29.51,29.10,13,4,23,0.00
2013-6-15,99,82,67,28,23,15,15,12,8,29.54,29.21,15,4,23,0.00
2013-6-16,100,83,66,28,22,13,15,11,8,29.62,29.23,17,4,25,0.00
2013-6-17,100,82,65,28,21,12,13,10,8,29.63,29.23,15,5,24,0.00
2013-6-18,99,81,63,28,20,11,13,11,8,29.58,29.14,15,5,25,0.00
2013-6-19,96,80,61,28,20,11,14,11,9,29.49,29.11,19,6,27,0.00
2013-6-20,97,80,62,28,20,11,14,11,8,29.49,29.17,16,5,24,0.04
2013-6-21,97,80,63,28,20,12,13,11,8,29.54,29.18,14,5,22,0.12
2013-6-22,97,80,62,28,20,11,14,11,8,29.56,29.14,13,4,22,0.00
2013-6-23,97,79,62,28,20,11,14,11,9,29.49,29.10,15,5,26,0.00
2013-6-24,94,79,65,27,20,12,13,11,9,29.49,29.20,15,6,24,0.00
2013-6-25,98,80,62,28,20,11,15,11,8,29.63,29.24,14,4,19,0.00
2013-6-26,101,84,64,28,21,12,13,10,7,29.67,29.29,10,3,15,0.00
2013-6-27,106,86,66,29,22,12,15,10,6,29.75,29.26,9,3,12,0.00
2013-6-28,112,89,71,29,24,14,14,10,5,29.61,29.12,19,3,35,0.00
2013-6-29,109,90,74,29,25,20,13,10,6,29.56,29.12,16,3,22,0.00
2013-6-30,108,89,76,29,25,21,13,10,6,29.44,29.14,19,4,28,0.00
2013-7-1,107,89,75,44,31,22,31,14,6,29.55,29.12,17,3,21,0.00
2013-7-2,102,81,70,60,43,30,67,31,10,29.61,29.24,19,4,24,0.04
2013-7-3,99,80,67,54,44,36,57,31,13,29.59,29.18,14,3,22,0.00
2013-7-4,102,86,71,44,37,26,35,20,8,29.45,29.09,10,3,13,0.00
2013-7-5,95,84,75,49,41,35,35,23,14,29.45,29.18,9,3,15,0.00
2013-7-6,100,81,72,58,45,38,56,30,12,29.50,29.15,17,3,23,0.05
2013-7-7,103,85,68,50,40,25,49,25,9,29.50,29.14,14,3,20,0.00
2013-7-8,106,87,71,46,35,25,34,18,6,29.59,29.20,13,4,17,0.00
2013-7-9,103,88,73,44,35,24,30,17,7,29.66,29.23,13,3,15,0.00
2013-7-10,102,84,76,57,48,33,47,32,9,29.57,29.23,23,3,28,0.00
2013-7-11,94,80,73,58,53,46,53,41,22,29.57,29.27,14,3,17,0.00
2013-7-12,94,75,67,63,56,45,85,56,20,29.65,29.35,15,3,21,0.04
2013-7-13,99,80,64,61,50,36,83,43,15,29.67,29.29,13,4,21,0.00
2013-7-14,102,85,70,50,42,31,44,25,9,29.60,29.22,13,4,18,0.17
2013-7-15,98,81,72,51,46,38,44,31,13,29.51,29.24,16,4,27,0.00
2013-7-16,88,77,68,64,53,46,86,48,25,29.71,29.39,13,3,21,0.24
2013-7-17,94,75,65,67,60,43,89,65,19,29.77,29.46,11,2,13,0.13
2013-7-18,96,79,67,63,54,41,81,47,17,29.72,29.30,7,2,7,0.04
2013-7-19,98,79,68,65,55,42,74,50,16,29.64,29.24,12,2,13,0.25
2013-7-20,94,75,66,66,60,50,88,63,25,29.61,29.28,16,2,22,0.25
2013-7-21,89,75,67,66,61,52,94,65,30,29.61,29.37,12,2,13,0.00
2013-7-22,91,77,68,63,58,49,81,56,28,29.64,29.41,10,2,13,0.00
2013-7-23,96,80,67,63,55,45,79,48,19,29.66,29.33,11,3,16,0.00
2013-7-24,102,82,68,63,50,33,69,38,10,29.61,29.22,13,2,18,0.00
2013-7-25,98,81,69,66,57,44,82,48,18,29.66,29.36,10,3,13,0.04
2013-7-26,90,76,70,68,59,48,85,57,28,29.82,29.52,19,2,33,1.25
2013-7-27,96,78,69,61,54,44,75,47,18,29.77,29.38,11,4,13,0.00
2013-7-28,97,75,66,60,54,45,70,51,19,29.61,29.31,15,3,18,0.08
2013-7-29,97,80,65,57,43,27,71,35,11,29.68,29.39,11,3,15,0.00
2013-7-30,100,83,66,45,36,25,40,22,7,29.81,29.42,14,3,20,0.00
2013-7-31,103,84,69,59,39,25,62,26,7,29.80,29.35,13,4,19,0.08
2013-8-1,95,80,70,60,51,41,65,40,17,29.67,29.35,13,2,17,0.00
2013-8-2,99,83,69,56,45,25,60,32,8,29.63,29.28,12,4,20,0.00
2013-8-3,101,85,69,52,40,24,48,25,7,29.67,29.28,11,3,17,0.00
2013-8-4,100,84,72,47,39,24,38,23,9,29.61,29.34,17,3,25,0.00
2013-8-5,98,80,69,47,41,25,42,28,9,29.67,29.33,24,3,26,0.00
2013-8-6,80,71,66,63,54,45,87,58,32,29.72,29.52,10,2,16,0.08
2013-8-7,94,78,64,64,50,31,90,47,11,29.74,29.32,15,3,18,3.02
2013-8-8,99,80,64,46,32,19,43,22,8,29.65,29.26,11,3,17,0.00
2013-8-9,99,82,64,29,24,18,21,12,8,29.63,29.29,14,4,20,0.00
2013-8-10,97,81,66,33,25,19,23,14,8,29.69,29.37,12,4,15,0.00
2013-8-11,98,81,67,46,36,25,39,22,8,29.72,29.29,14,5,23,0.00
2013-8-12,99,84,68,46,32,21,41,19,8,29.65,29.25,12,4,27,0.00
2013-8-13,101,84,66,34,27,20,23,14,7,29.69,29.29,14,3,17,0.00
2013-8-14,103,84,68,32,24,18,20,12,7,29.65,29.26,11,3,15,0.00
2013-8-15,100,83,72,49,36,26,42,20,8,29.66,29.31,11,3,17,0.00
2013-8-16,104,86,72,45,37,25,33,20,7,29.64,29.26,11,3,17,1.49
2013-8-17,103,81,71,58,43,25,56,30,8,29.75,29.31,16,4,21,0.17
2013-8-18,102,81,67,52,43,25,56,30,7,29.70,29.29,15,3,24,0.00
2013-8-19,98,81,70,50,41,32,45,27,11,29.70,29.34,15,3,26,0.00
2013-8-20,101,84,66,44,35,24,40,21,7,29.66,29.20,12,3,15,0.00
2013-8-21,83,78,73,51,46,39,41,32,25,29.63,29.41,13,3,15,0.00
2013-8-22,96,80,70,55,44,31,57,31,11,29.62,29.25,15,3,26,0.00
2013-8-23,96,80,66,56,45,31,65,35,11,29.63,29.26,13,3,19,0.00
2013-8-24,88,74,67,64,51,42,80,45,23,29.72,29.34,8,2,12,0.12
2013-8-25,78,70,66,64,60,52,88,73,52,29.77,29.58,6,1,8,0.46
2013-8-26,92,75,66,71,60,52,94,64,28,29.73,29.37,9,2,13,0.21
2013-8-27,101,79,67,58,51,39,72,43,13,29.64,29.31,16,4,23,0.00
2013-8-28,100,78,67,63,53,42,64,45,15,29.66,29.35,12,2,17,0.24
2013-8-29,96,78,66,65,54,44,89,49,19,29.86,29.41,9,3,15,0.00
2013-8-30,95,74,66,71,63,52,95,75,27,29.86,29.43,15,2,18,1.66
2013-8-31,92,72,67,70,65,50,96,82,29,29.70,29.41,16,2,20,0.46
2013-9-1,97,78,64,66,57,45,96,57,19,29.68,29.30,18,2,24,0.00
2013-9-2,100,80,66,59,52,39,72,43,14,29.66,29.29,9,2,13,0.00
2013-9-3,103,83,66,56,45,29,63,33,9,29.65,29.27,13,3,15,0.00
2013-9-4,102,82,70,60,47,31,65,35,9,29.68,29.33,15,3,19,0.12
2013-9-5,102,82,66,58,45,25,68,35,7,29.73,29.33,8,2,11,0.00
2013-9-6,105,83,69,56,41,25,56,29,7,29.67,29.28,13,3,26,0.04
2013-9-7,94,77,68,58,52,40,64,44,18,29.67,29.33,10,2,13,0.04
2013-9-8,76,69,66,64,60,54,88,72,51,29.66,29.40,8,2,9,0.57
2013-9-9,70,66,62,66,64,61,98,93,81,29.56,29.40,9,1,10,1.03
2013-9-10,77,66,60,65,60,56,97,83,51,29.61,29.40,11,1,13,0.62
2013-9-11,87,69,61,65,56,46,98,69,29,29.73,29.48,8,2,12,0.49
2013-9-12,93,74,57,54,46,32,78,44,14,29.75,29.30,9,2,11,0.00
2013-9-13,95,77,61,52,43,31,65,36,11,29.59,29.16,8,2,11,0.00
2013-9-14,96,76,62,52,45,30,63,38,11,29.52,29.12,15,3,23,0.00
2013-9-15,97,77,62,52,44,31,63,37,11,29.60,29.27,12,3,18,0.00
2013-9-16,99,80,64,50,44,33,51,32,10,29.64,29.26,14,2,20,0.00
2013-9-17,96,79,66,54,47,37,61,36,15,29.59,29.18,10,3,16,0.00
2013-9-18,95,76,65,54,37,20,61,31,9,29.46,29.19,13,3,19,0.00
2013-9-19,98,82,62,39,30,22,32,17,9,29.52,29.22,10,3,17,0.00
2013-9-20,99,80,62,40,32,23,37,20,8,29.56,29.24,12,3,20,0.00
2013-9-21,94,79,64,48,39,32,46,25,14,29.64,29.21,15,4,18,0.00
2013-9-22,83,71,59,43,28,12,39,22,10,29.55,29.14,22,6,28,0.00
2013-9-23,93,80,58,32,25,19,22,14,9,29.68,29.34,7,3,11,0.00
2013-9-24,95,74,56,33,24,18,28,17,9,29.78,29.35,10,3,13,0.00
2013-9-25,87,71,57,34,25,17,35,20,11,29.58,29.17,15,5,29,0.00
2013-9-26,84,69,58,41,29,20,52,24,11,29.46,29.17,21,8,34,0.00
2013-9-27,84,66,55,33,22,8,41,20,10,29.75,29.35,8,3,13,0.00
2013-9-28,89,70,51,27,17,7,19,13,10,29.93,29.51,11,4,16,0.00
2013-9-29,91,70,51,31,23,12,34,18,10,29.97,29.47,10,2,13,0.00
2013-9-30,93,71,53,31,25,17,35,21,9,29.81,29.38,8,2,13,0.00
2013-10-1,92,70,53,30,22,13,30,18,9,29.78,29.38,9,3,13,0.00
2013-10-2,88,69,53,33,24,18,35,20,10,29.78,29.33,12,4,20,0.00
2013-10-3,84,67,53,37,26,17,40,23,11,29.67,29.25,17,5,26,0.00
2013-10-4,86,64,51,26,15,7,19,15,10,29.94,29.44,16,6,24,0.00
2013-10-5,78,62,50,22,11,6,16,14,10,30.06,29.72,16,8,26,0.00
2013-10-6,92,67,48,27,14,4,17,13,9,30.10,29.55,10,3,12,0.00
2013-10-7,90,69,52,27,16,7,16,13,10,29.92,29.44,8,3,11,0.00
2013-10-8,87,68,53,26,17,8,22,14,10,29.70,29.29,14,4,23,0.00
2013-10-9,78,63,54,36,24,13,38,23,13,29.50,29.19,19,6,27,0.00
2013-10-10,58,51,44,43,34,29,73,52,37,29.83,29.36,13,4,21,0.12
2013-10-11,78,58,40,36,30,20,70,41,13,29.90,29.45,8,2,10,0.00
2013-10-12,84,62,45,33,26,16,50,30,11,29.89,29.43,11,3,17,0.00
2013-10-13,52,49,47,29,29,28,49,45,39,29.76,29.70,2,1,4,0.00
2013-10-16,82,63,50,24,17,11,26,18,11,29.90,29.54,11,4,16,0.00
2013-10-17,83,64,45,26,17,8,31,18,10,29.93,29.46,7,2,9,0.00
2013-10-18,84,63,46,24,15,7,27,17,10,29.88,29.50,11,4,16,0.00
2013-10-19,86,64,48,25,13,4,17,14,10,29.96,29.46,7,2,10,0.00
2013-10-20,86,63,45,25,13,3,20,14,10,29.85,29.35,7,2,11,0.00
2013-10-21,89,65,48,27,14,4,19,14,10,29.86,29.44,10,3,14,0.00
2013-10-22,89,67,50,27,14,6,18,13,10,29.95,29.50,7,2,13,0.00
2013-10-23,90,67,51,27,15,6,19,14,10,29.83,29.39,7,2,10,0.00
2013-10-24,91,69,57,28,16,8,23,13,9,29.76,29.39,11,3,18,0.00
2013-10-25,87,66,50,33,20,7,37,19,10,29.89,29.51,8,3,13,0.00
2013-10-26,89,67,51,33,24,14,38,22,10,30.00,29.61,11,4,16,0.00
2013-10-27,88,68,52,32,22,12,36,19,10,29.83,29.30,12,4,18,0.00
2013-10-28,74,63,57,32,19,12,35,18,13,29.51,29.31,18,7,29,0.00
2013-10-29,60,54,48,39,31,22,49,41,26,29.70,29.48,15,6,20,0.00
2013-10-30,70,56,44,33,20,10,49,26,14,29.87,29.49,11,4,15,0.00
2013-10-31,69,46,39,27,21,18,46,38,17,30.05,29.77,4,1,6,0.00
2013-11-8,82,64,50,24,14,7,19,15,11,29.90,29.53,7,2,9,0.00
2013-11-9,83,61,45,27,18,8,33,20,11,30.00,29.55,7,2,9,0.00
2013-11-10,82,60,46,30,19,16,30,22,11,30.05,29.63,8,2,11,0.00
2013-11-11,88,64,49,27,18,11,29,19,10,30.01,29.60,11,4,15,0.00
2013-11-12,89,67,54,26,14,8,15,13,10,30.07,29.67,11,4,17,0.00
2013-11-13,84,65,52,27,18,7,33,17,11,30.03,29.56,6,3,11,0.00
2013-11-14,83,62,47,31,23,11,43,26,11,29.87,29.41,7,2,11,0.00
2013-11-15,70,56,49,43,31,24,78,40,24,29.63,29.20,14,4,23,0.25
2013-11-16,65,54,48,48,39,32,84,60,35,29.69,29.34,14,4,19,0.00
2013-11-17,68,53,45,44,35,30,73,53,26,29.92,29.64,7,2,12,0.00
2013-11-18,79,57,42,38,32,26,67,43,18,30.03,29.54,7,2,11,0.00
2013-11-19,75,56,44,41,33,28,62,43,22,29.85,29.42,9,2,15,0.00
2013-11-20,59,52,49,50,41,34,89,66,46,29.68,29.52,5,1,6,0.05
2013-11-21,57,52,46,47,44,39,89,76,53,29.78,29.54,7,1,11,0.41
2013-11-22,49,46,44,45,42,38,92,84,69,29.77,29.56,16,5,24,1.12
2013-11-23,49,44,41,45,40,37,92,85,71,29.89,29.71,9,3,11,0.70
2013-11-24,53,42,37,40,36,33,91,80,53,30.07,29.81,6,2,9,0.00
2013-11-25,67,47,34,40,30,22,87,58,26,30.14,29.72,9,2,10,0.00
2013-11-26,71,49,37,32,24,13,62,42,15,30.21,29.82,11,4,18,0.00
2013-11-27,69,50,41,28,23,16,53,37,15,30.14,29.64,9,5,14,0.00
2013-11-28,72,50,37,30,22,14,54,37,14,30.02,29.57,8,2,9,0.00
2013-11-29,73,52,40,32,26,23,56,40,19,30.08,29.72,8,2,11,0.00
2013-11-30,76,53,40,34,28,22,60,41,15,30.11,29.65,9,2,12,0.00
2013-12-1,67,50,39,30,26,22,55,41,23,30.15,29.79,7,2,13,0.00
2013-12-2,73,50,37,29,23,19,51,38,14,30.10,29.55,5,2,6,0.00
2013-12-3,67,51,38,33,24,17,62,38,20,29.75,29.31,16,4,20,0.00
2013-12-4,52,43,35,40,28,21,82,57,36,29.78,29.35,17,6,28,0.08
2013-12-5,54,38,29,28,16,5,72,44,18,30.01,29.59,9,2,12,0.00
2013-12-6,55,36,24,16,8,-1,49,33,15,30.14,29.80,7,2,8,0.00
2013-12-7,42,33,24,30,15,6,74,47,32,30.05,29.72,16,5,27,0.00
2013-12-8,54,38,31,33,24,15,89,59,31,29.99,29.75,11,4,22,0.12
2013-12-9,49,33,23,16,4,-7,59,32,16,30.46,29.99,13,5,20,0.00
2013-12-10,61,39,24,11,1,-9,28,20,14,30.46,29.88,9,3,13,0.00
2013-12-11,68,44,27,14,4,-2,28,20,12,30.34,29.92,12,3,18,0.00
2013-12-12,73,49,38,23,13,0,38,24,12,30.30,29.73,10,4,14,0.00
2013-12-13,67,48,35,30,22,14,58,38,20,30.13,29.69,7,2,9,0.00
2013-12-14,66,46,35,22,11,2,41,26,14,30.35,30.01,13,4,21,0.00
2013-12-15,75,49,32,21,11,4,41,24,11,30.37,29.83,10,3,13,0.00
2013-12-16,81,52,41,24,15,10,29,24,12,30.21,29.74,6,2,6,0.00
2013-12-17,67,55,50,18,12,8,26,18,12,30.04,29.83,5,2,8,0.00
2013-12-18,67,52,41,24,16,10,38,25,15,30.02,29.55,4,1,5,0.00
2013-12-19,65,49,42,34,22,14,73,37,15,29.66,29.25,15,4,26,0.21
2013-12-20,58,42,37,40,35,31,88,76,46,29.62,29.24,9,2,13,0.33
2013-12-21,49,39,34,35,31,28,87,74,48,29.86,29.50,7,1,11,0.00
2013-12-22,62,43,31,32,24,17,80,51,24,30.22,29.80,6,2,7,0.00
2013-12-23,68,46,32,26,17,10,53,34,16,30.33,29.92,9,3,15,0.00
2013-12-24,71,50,36,26,18,14,46,30,14,30.25,29.76,10,3,17,0.00
2013-12-25,70,49,39,16,9,0,31,20,12,30.22,29.86,10,4,17,0.00
2013-12-26,71,50,36,16,6,-1,24,17,12,30.26,29.79,11,4,16,0.00
2013-12-27,75,52,38,17,7,0,21,16,11,30.23,29.70,9,3,15,0.00
2013-12-28,64,46,36,21,14,6,41,28,16,30.09,29.64,5,2,6,0.00
2013-12-29,65,46,36,22,12,0,46,27,13,30.15,29.74,17,5,23,0.00
2013-12-30,71,46,32,16,6,-1,29,20,12,30.27,29.82,5,2,6,0.00
2013-12-31,73,49,35,24,15,10,40,28,13,30.26,29.76,6,2,7,0.00
2014-1-1,74,51,36,25,15,5,42,26,12,30.15,29.70,12,3,17,0.00
2014-1-2,75,53,39,17,8,0,28,16,10,30.19,29.74,6,3,8,0.00